RH
100 100 78 100 96 91 100 98 100 76 99 100 100 94 100 100 100 93 79 100 96 53 80 58 68 70 64 64 69 80 79 99 90 53 100 98 100 96 69 53 34 40 37 28 27
100 100 90 97 90 96 100 100 100 98 82 86 69 78 100 91 96 100 100 96 100 100 92 79 50 50 46 51 51 56 61 59 73 62 78 67 59 98 100 73 47 52 45 32 27
100 100 100 93 85 98 100 100 100 100 100 100 99 86 99 99 86 72 100 98 100 100 99 100 82 62 46 51 51 71 61 48 44 48 52 65 59 68 58 70 37 46 35 41 32
98 99 99 100 94 78 100 100 100 100 100 100 100 96 88 100 95 92 97 100 100 83 100 100 100 98 41 42 55 54 61 55 51 68 46 53 82 70 70 64 55 60 55 64 54
71 71 83 88 80 66 100 100 100 100 100 100 96 100 90 98 100 95 100 100 100 100 100 100 100 100 100 87 55 82 100 100 99 59 43 47 59 96 99 100 91 88 88 95 82
34 39 56 56 59 88 93 100 100 100 96 100 76 91 100 98 98 97 100 100 78 100 100 100 100 97 100 99 51 91 91 65 48 45 47 69 67 55 57 66 72 95 86 93 100
47 44 35 36 52 71 72 100 100 87 100 100 100 87 84 98 100 97 100 100 86 96 100 100 100 100 100 100 100 100 100 71 52 70 100 87 75 71 44 50 74 100 96 73 80
74 67 57 47 35 38 45 54 88 92 100 88 100 91 77 100 100 100 100 100 100 99 100 92 99 100 100 100 100 100 100 96 60 60 100 100 100 88 64 49 98 96 63 46 44
100 100 88 71 60 59 58 42 32 54 81 84 91 93 71 77 99 100 100 100 99 99 100 99 79 98 95 86 85 100 100 100 98 100 100 97 91 100 98 68 59 92 88 92 97
100 100 100 97 80 95 82 66 67 41 35 34 41 66 54 68 95 100 100 100 100 100 100 97 91 100 95 90 78 96 100 100 100 100 100 92 100 100 100 88 62 50 93 99 99
100 100 100 100 100 100 100 100 100 92 61 56 49 47 92 100 100 100 100 100 100 100 97 100 92 73 100 100 95 78 74 69 100 100 100 67 73 62 100 100 89 49 42 49 56
100 100 100 100 100 100 98 100 100 94 96 88 73 60 99 97 100 100 100 99 81 76 82 90 97 99 97 52 87 97 94 88 77 100 100 100 79 98 99 100 100 83 64 71 64
38 55 97 100 100 100 100 99 100 100 96 100 89 46 100 49 41 76 100 100 96 71 97 91 100 100 97 62 64 71 80 99 100 99 100 86 94 79 98 100 100 96 65 87 100
18 17 18 20 35 81 100 100 100 100 100 100 100 86 64 98 46 42 54 100 100 100 99 96 99 97 100 92 63 55 76 82 82 100 100 100 81 67 100 100 88 100 100 96 85
18 19 19 18 18 23 30 71 100 100 100 100 100 99 100 100 84 57 74 68 94 100 100 83 73 78 95 86 92 76 100 99 100 93 100 91 92 72 100 100 100 98 71 100 100
17 19 21 21 20 19 19 24 30 29 35 97 100 100 100 100 98 76 89 60 60 59 100 87 69 58 70 84 54 74 100 91 100 100 92 70 86 64 100 100 100 99 73 79 95
20 21 23 24 24 24 24 22 20 23 31 24 39 100 100 100 100 93 86 100 65 57 50 78 91 74 56 84 85 68 95 92 100 82 65 99 100 95 100 100 100 100 76 60 73
20 22 23 23 23 24 23 23 21 22 24 23 33 33 60 98 100 100 93 100 100 100 66 62 66 87 92 62 77 88 100 100 85 83 86 77 84 82 100 100 98 86 82 60 51
30 28 32 29 28 25 23 20 22 23 24 22 20 27 48 58 89 100 100 100 100 100 100 100 100 100 96 100 72 72 99 91 96 88 69 68 65 59 77 92 100 100 100 56 50
42 42 41 38 31 28 25 33 39 36 30 28 26 19 21 30 35 70 90 96 95 97 100 100 100 100 100 100 80 66 74 97 88 72 74 51 53 45 66 72 89 100 100 100 68
58 57 48 46 40 38 42 46 50 51 45 38 29 26 26 19 20 26 32 43 86 92 97 96 97 100 100 100 100 100 99 100 99 100 66 39 33 43 59 76 97 82 91 100 94
61 78 66 54 48 59 65 66 49 44 39 38 33 29 24 21 18 16 16 19 27 44 64 70 75 60 67 80 100 100 100 100 100 100 100 69 33 49 44 57 74 75 72 63 57
54 64 70 65 68 71 64 63 54 47 39 33 28 33 32 27 19 19 17 20 17 19 20 25 30 46 56 65 63 98 100 100 100 100 100 100 85 100 81 84 75 62 53 61 75
58 65 73 71 71 64 62 60 57 60 52 54 47 38 41 31 25 27 25 27 26 22 19 14 16 16 14 19 25 47 72 99 100 100 100 100 94 100 100 86 83 91 81 85 78
53 75 94 83 75 55 47 59 72 76 66 56 51 44 39 35 44 34 28 26 22 22 21 16 11 12 13 13 18 37 51 56 77 90 100 100 98 100 100 100 100 100 92 100 90
65 73 80 93 71 65 64 88 67 68 62 61 53 63 41 44 32 34 26 26 27 27 23 22 13 13 12 14 12 11 20 46 56 51 49 64 99 100 100 100 100 100 100 100 100
84 85 76 82 88 80 76 64 65 67 76 78 52 42 43 40 45 36 32 29 29 27 30 24 20 18 10 17 16 9 10 12 13 14 14 19 35 48 78 84 98 100 100 100 100
Wind_Speed
93 85 83 85 83 80 77 78 74 76 73 72 72 67 64 61 56 56 51 56 54 50 51 47 46 43 40 38 33 33 30 30 31 21 26 31 33 30 13 16 26 19 22 22 28
93 91 88 81 90 84 82 81 82 80 83 79 78 76 69 64 62 62 53 61 61 53 51 52 51 49 46 44 39 42 39 30 33 32 33 30 26 27 29 18 30 24 27 23 25
96 95 94 90 86 89 86 84 86 84 84 84 82 82 79 73 65 64 59 53 62 61 56 56 52 53 52 48 48 45 44 41 35 33 34 35 33 30 34 32 36 25 30 28 22
97 93 94 95 92 94 86 88 89 87 88 85 84 82 83 82 75 68 68 59 59 66 62 59 57 60 57 58 54 45 45 44 45 45 40 37 36 38 43 42 38 28 31 29 24
93 96 91 90 94 95 90 91 89 90 92 88 90 86 86 83 79 75 75 69 67 63 64 64 63 59 58 54 53 47 50 48 44 42 45 40 36 31 35 38 39 30 31 29 27
90 91 87 87 88 89 95 93 91 91 91 96 91 88 87 82 88 74 78 78 76 71 61 62 68 61 56 58 57 54 51 48 49 53 51 43 42 43 40 33 36 29 33 30 28
90 85 83 82 89 87 89 87 90 93 90 92 91 92 91 81 91 81 80 83 81 78 73 70 63 62 66 60 65 60 53 52 49 55 51 48 40 44 43 35 38 38 33 32 33
92 94 86 85 85 81 79 85 91 94 95 96 93 93 88 90 92 89 86 85 82 83 83 78 72 66 66 63 63 62 56 54 53 55 55 54 40 49 48 34 39 41 43 37 33
95 96 93 89 84 83 80 79 81 87 94 91 92 93 91 89 93 91 87 85 88 85 84 87 82 75 68 69 65 57 58 61 58 64 60 55 44 53 49 37 35 44 44 40 43
97 100 97 92 91 90 82 86 81 83 81 88 88 86 87 88 90 86 87 86 87 88 88 85 89 86 79 75 69 68 68 71 61 68 64 58 50 49 50 44 49 44 46 43 44
110 105 104 101 100 97 90 96 90 88 84 85 80 86 83 86 88 91 92 89 92 90 89 90 93 82 78 80 80 82 78 66 58 67 73 65 60 52 52 50 50 45 44 49 48
119 114 111 107 110 110 101 98 97 96 90 90 89 84 84 84 88 89 94 98 98 95 98 99 90 82 89 93 89 84 81 74 73 70 80 71 65 57 53 58 54 49 48 53 54
88 104 119 120 117 119 113 110 107 104 95 99 93 83 93 80 82 94 97 98 99 100 96 100 84 85 91 97 98 91 87 78 74 83 83 77 75 64 55 58 55 54 50 50 58
61 62 66 78 96 119 125 120 124 111 107 103 104 96 97 96 92 95 99 101 98 92 100 104 92 93 91 92 98 93 90 85 84 87 85 84 80 65 59 58 51 50 49 60 64
61 64 65 63 62 64 78 109 129 126 115 110 113 110 106 105 103 99 103 103 100 96 101 97 97 100 97 90 94 97 97 92 91 92 91 84 89 57 67 60 54 55 57 64 65
54 58 61 63 63 59 58 59 70 88 104 134 119 116 115 113 110 102 99 102 102 103 108 98 95 94 89 96 103 103 98 101 99 97 99 82 92 68 70 65 65 63 67 66 66
45 49 53 57 59 60 60 57 56 54 66 85 107 122 120 119 114 110 106 107 109 105 105 108 105 105 97 94 97 104 107 104 108 108 105 85 93 76 72 73 70 68 67 69 69
33 36 40 45 50 54 54 55 55 58 64 63 69 89 122 131 128 124 116 116 112 113 113 109 106 103 98 95 95 102 105 105 110 111 110 106 108 86 72 76 75 74 72 74 71
35 34 36 36 37 40 42 45 50 59 63 70 68 67 73 103 133 129 131 122 121 119 115 117 115 110 108 106 102 94 108 101 109 110 118 112 109 101 80 74 74 76 76 85 79
39 38 40 39 37 36 33 35 42 52 61 64 70 72 74 75 88 125 134 130 129 130 131 120 118 111 114 115 105 103 101 109 112 112 113 111 111 106 83 81 82 80 81 81 82
44 44 45 44 41 38 37 41 46 53 57 59 64 67 71 78 82 86 93 108 129 133 137 138 138 119 117 114 112 112 108 113 115 119 118 116 107 88 82 83 86 86 82 84 83
46 48 49 48 44 43 43 50 53 56 57 59 61 63 69 75 77 83 85 86 97 116 137 146 142 136 130 123 122 124 120 120 120 119 121 120 115 84 85 82 89 82 88 92 88
50 50 51 50 48 50 51 52 55 57 60 62 60 63 68 70 74 76 78 84 91 99 103 106 120 142 147 148 145 134 128 129 126 128 125 124 118 84 89 85 88 87 88 85 86
52 51 55 55 55 57 58 56 57 60 59 63 65 65 68 69 72 71 76 82 89 94 102 106 107 109 113 122 133 138 139 135 134 134 131 129 123 95 88 87 89 89 91 89 93
57 56 59 59 61 61 60 58 61 62 65 68 66 69 72 65 70 71 77 82 86 91 98 106 102 104 104 102 110 135 138 144 145 137 139 133 131 124 98 93 93 93 95 95 91
62 64 64 64 66 64 63 65 69 71 72 71 70 75 71 63 77 77 82 81 82 87 92 98 96 101 97 99 107 108 113 133 146 140 140 138 137 129 120 117 108 103 107 109 103
66 68 68 65 68 69 71 71 70 73 73 75 75 71 69 74 82 79 81 79 80 83 88 93 97 101 92 96 103 103 94 107 112 115 119 129 142 140 135 124 120 118 125 119 114
Wind_Direction
247 244 246 248 248 245 246 243 247 248 248 250 249 250 248 253 255 259 257 262 259 263 253 261 266 265 264 270 272 276 285 279 280 275 282 293 306 295 290 334 338 333 334 338 348
246 246 247 244 250 248 246 242 245 248 248 248 251 248 250 253 250 252 252 258 262 261 258 262 262 261 268 270 270 275 281 280 288 293 287 280 293 301 292 304 323 324 330 331 352
251 247 247 249 251 248 246 245 245 247 248 247 248 251 250 251 250 249 256 257 252 258 256 259 261 262 263 271 271 276 278 278 282 287 295 290 273 280 286 293 303 310 317 321 327
252 252 251 252 249 247 246 242 244 246 245 247 246 251 250 246 250 248 247 252 256 248 258 256 262 265 262 268 269 270 275 275 271 283 286 295 282 277 282 288 291 304 303 313 317
253 253 254 253 253 246 246 244 245 245 245 247 249 250 249 248 249 248 252 249 253 255 253 255 260 257 258 264 267 267 267 272 277 279 283 284 291 293 294 298 286 290 294 300 301
253 253 253 255 249 245 244 244 246 249 248 246 247 247 246 248 247 247 250 248 247 252 252 256 252 253 266 262 265 256 258 269 280 278 276 275 286 292 291 292 300 300 296 295 289
258 257 253 250 248 247 249 246 246 246 245 249 247 248 247 249 245 243 248 250 248 248 250 251 254 256 251 261 256 257 257 263 276 271 272 267 279 279 286 290 295 300 296 297 294
255 255 257 254 246 246 249 247 249 251 247 247 249 248 248 244 246 245 243 248 248 248 250 250 251 255 251 258 260 255 259 262 267 265 264 265 267 271 279 284 288 291 298 301 295
247 251 254 255 255 254 249 244 252 246 247 246 248 250 248 247 245 244 244 246 247 250 250 251 251 254 253 252 257 258 260 261 257 262 263 261 261 266 273 272 286 288 292 299 296
242 247 250 252 254 252 252 249 254 254 252 246 247 249 249 247 242 245 244 243 245 246 248 251 251 251 255 256 253 253 254 259 248 257 254 257 263 261 267 266 283 287 289 295 300
241 243 243 247 248 245 244 242 246 249 251 253 252 252 241 243 245 245 246 243 243 244 248 251 250 251 254 254 252 251 250 247 255 255 257 257 256 255 262 269 276 277 280 286 288
237 240 242 243 244 246 244 240 241 246 248 249 253 251 244 239 242 245 248 249 249 249 249 251 254 251 250 252 252 250 251 252 250 259 258 256 252 250 253 264 265 270 280 279 280
244 244 243 242 243 242 242 243 242 243 243 246 246 242 247 242 249 248 246 247 249 248 250 250 246 248 249 250 251 254 255 253 253 251 255 254 252 250 251 253 263 273 280 276 272
244 245 245 245 245 244 241 242 242 244 241 237 241 240 243 249 245 248 247 245 246 247 246 246 243 246 249 249 253 255 257 255 252 252 252 255 254 247 255 254 260 262 274 277 273
244 244 246 247 247 247 246 244 241 241 243 238 238 240 240 241 244 248 251 245 244 247 246 249 249 250 248 250 251 250 249 252 249 252 252 251 259 245 251 256 259 261 265 269 268
246 245 246 248 250 249 249 248 246 246 246 239 239 240 238 238 239 242 248 251 247 247 245 247 246 252 253 249 249 251 250 249 252 251 251 252 259 250 251 257 259 258 260 262 264
249 248 250 251 252 250 250 251 252 253 250 246 242 236 236 240 240 239 241 246 248 251 251 248 250 252 254 248 248 249 250 248 250 251 253 249 250 246 246 252 253 256 261 263 262
254 252 252 252 251 251 251 252 253 250 253 249 246 242 240 241 240 239 239 239 241 246 249 250 251 251 253 251 248 248 248 248 249 249 251 249 250 253 245 249 255 260 264 267 264
258 257 255 255 256 258 259 260 256 254 250 252 248 246 244 243 241 242 241 242 239 240 243 247 247 247 250 251 251 249 252 254 253 252 250 250 251 255 252 252 254 256 258 265 264
259 261 261 263 263 264 263 263 259 255 254 252 254 248 246 245 244 241 242 244 243 243 240 241 242 243 245 247 251 254 253 256 259 256 255 253 254 256 258 256 256 257 254 255 259
256 259 262 264 266 270 271 267 267 264 261 259 257 255 254 248 245 245 245 244 245 247 246 241 246 239 245 250 248 248 251 253 255 257 258 256 253 257 254 256 254 256 256 257 259
254 257 259 264 267 271 270 268 267 269 269 265 262 261 258 256 252 250 246 247 248 248 251 250 247 243 244 246 247 245 248 246 248 251 256 260 258 256 256 254 257 257 255 257 259
254 256 261 263 266 266 268 271 270 270 271 271 268 265 261 259 258 256 255 253 249 250 250 249 249 251 246 244 247 244 246 247 249 251 250 254 258 245 248 251 255 256 256 257 256
256 258 261 262 264 266 267 270 272 274 275 275 272 269 266 262 258 255 254 252 252 252 252 249 248 250 249 247 245 245 246 245 245 248 250 253 257 246 246 252 254 255 255 256 256
256 259 261 264 266 267 271 273 275 277 274 272 272 271 268 266 268 263 256 253 254 255 255 255 252 252 252 251 248 245 244 249 248 249 251 251 254 253 241 242 244 247 255 253 254
257 259 260 265 268 272 275 275 274 273 273 276 274 272 271 271 263 261 258 256 254 255 256 259 258 255 251 251 249 246 247 248 248 250 251 252 249 253 252 244 244 249 252 255 255
259 259 261 266 269 272 273 273 275 276 276 273 274 275 277 266 261 259 258 259 259 258 258 257 258 258 254 252 250 248 248 247 248 251 254 252 251 252 253 252 248 247 249 254 256